Hourly Data Report for May 31, 2004

TORONTO CITY
ONTARIO

43°40'00.000" N
79°24'00.000" W
112.50 m
6158355
71508
XTO

Download Data

Hourly Data (May 2004)
Hourly Data Report for May 31, 2004
TIME
LST
Temp Definition
°C
Dew Point Definition
°C
Rel Hum Definition
%
Precip. Amount Definition
mm

Wind Dir Definition
10's deg

Wind Spd Definition
km/h
Visibility Definition
km
Stn Press Definition
kPa
Hmdx Definition


Wind Chill Definition


Weather Definition


00:00 14.2 1.6 42   LegendMM LegendMM LegendMM 99.66     LegendNANA
01:00 14.7 3.3 46   LegendMM LegendMM LegendMM 99.57     LegendNANA
02:00 14.0 3.7 50   LegendMM LegendMM LegendMM 99.44     LegendNANA
03:00 13.2 4.3 55   LegendMM LegendMM LegendMM 99.41     LegendNANA
04:00 13.2 4.8 57   LegendMM LegendMM LegendMM 99.34     LegendNANA
05:00 14.0 4.3 52   LegendMM LegendMM LegendMM 99.28     LegendNANA
06:00 14.3 4.4 51   LegendMM LegendMM LegendMM 99.24     LegendNANA
07:00 13.9 5.3 56   LegendMM LegendMM LegendMM 99.24     LegendNANA
08:00 13.6 5.9 60   LegendMM LegendMM LegendMM 99.16     LegendNANA
09:00 13.2 6.4 63   LegendMM LegendMM LegendMM 99.15     LegendNANA
10:00 13.0 5.9 62   LegendMM LegendMM LegendMM 99.12     LegendNANA
11:00 12.1 6.1 67   LegendMM LegendMM LegendMM 99.03     LegendNANA
12:00 12.0 7.1 72   LegendMM LegendMM LegendMM 98.93     LegendNANA
13:00 11.5 8.4 81   LegendMM LegendMM LegendMM 98.88     LegendNANA
14:00 10.7 10.0 95   LegendMM LegendMM LegendMM 98.79     LegendNANA
15:00 11.9 11.5 97   LegendMM LegendMM LegendMM 98.68     LegendNANA
16:00 11.6 11.3 98   LegendMM LegendMM LegendMM 98.64     LegendNANA
17:00 11.3 11.1 99   LegendMM LegendMM LegendMM 98.61     LegendNANA
18:00 11.1 10.9 99   LegendMM LegendMM LegendMM 98.61     LegendNANA
19:00 11.0 10.8 99   LegendMM LegendMM LegendMM 98.62     LegendNANA
20:00 11.3 11.2 99   LegendMM LegendMM LegendMM 98.63     LegendNANA
21:00 11.4 11.3 99   LegendMM LegendMM LegendMM 98.68     LegendNANA
22:00 11.6 11.6 100   LegendMM LegendMM LegendMM 98.71     LegendNANA
23:00 11.9 11.9 100   LegendMM LegendMM LegendMM 98.69     LegendNANA

Notes on Data Quality.

Legend

  • E = Estimated
  • M = Missing
  • NA = Not Available*
  • [empty] = Indicates an unobserved value
Date modified: